(°C)
-6°
-5°
-3°
-3°
-2°
-2°
-2°
(°C)
-11°
-10°
-8°
-7°
-6°
-6°
-6°
KKD
KKD
KKD
K
K
KKB
BKB
(km/saat)
10-16
8-15
6-13
5-11
4-9
3-7
2-5
(mm)
0
0
0
0
0
0
0
(%)
2
3
4
5
5
4
4

Güneşin açısı

/ 27.3°
sun-icon
UV 2
07:16
17:11
Azalan ay (232°)
22:00
10:06

Wilmington Manor (KILG) için METAR

Zaman Koşullar Sıcaklık/
Çiy noktası
Rüzgar Görünürlük Hava Bulutlar Basınç Değiştir Ham
VFR -6.1°C / °C 360º 9kt >10km - Clear 1030 - KILG 221451Z 36009KT 10SM CLR M06/M18 A3044 RMK AO2 SLP308 T10611178 56004 $
VFR -7.8°C / °C 20º 8kt >10km - Clear 1031 - KILG 221351Z 02008KT 10SM CLR M08/M18 A3045 RMK AO2 SLP313 T10781183 $
VFR -9.4°C / °C 20º 8kt >10km - Few Clouds 3800ft 1030 - KILG 221251Z 02008KT 10SM FEW038 M09/M18 A3044 RMK AO2 SLP307 T10941178 $
VFR -8.9°C / °C 350º 9kt >10km - Overcast 3700ft 1031 - KILG 221151Z 35009KT 10SM OVC037 M09/M18 A3045 RMK AO2 SLP313 T10891183 11056 21094 53014 $
VFR -9.4°C / °C 360º 7kt >10km - Clear 1030 - KILG 221051Z AUTO 36007KT 10SM CLR M09/M18 A3042 RMK AO2 SLP302 T10941178 $
VFR -8.9°C / °C 350º 7kt >10km - Clear 1030 - KILG 220951Z AUTO 35007KT 10SM CLR M09/M18 A3041 RMK AO2 SLP300 T10891178 $
VFR -8.3°C / °C 360º 8kt >10km - Clear 1029 - KILG 220851Z AUTO 36008KT 10SM CLR M08/M17 A3041 RMK AO2 SLP298 T10831172 58017 $
VFR -7.2°C / °C 360º 7kt >10km - Few Clouds 3400ft 1030 - KILG 220751Z AUTO 36007KT 10SM FEW034 M07/M17 A3043 RMK AO2 SLP306 T10721172 $
VFR -6.7°C / °C 20º 9kt >10km - Clear 1031 - KILG 220651Z AUTO 02009KT 10SM CLR M07/M17 A3044 RMK AO2 SLP310 T10671172 $
VFR -5.6°C / °C 20º 11kt >10km - Clear 1031 - KILG 220551Z AUTO 02011KT 10SM CLR M06/M18 A3046 RMK AO2 SLP315 T10561183 11044 21056 58017 $
VFR -5°C / °C 30º 12kt >10km - Clear 1032 - KILG 220451Z AUTO 03012KT 10SM CLR M05/M19 A3049 RMK AO2 SLP324 T10501194 410281089 $
VFR -4.4°C / °C 40º 14kt >10km - Clear 1033 - KILG 220351Z AUTO 04014KT 10SM CLR M04/M20 A3051 RMK AO2 SLP332 T10441200 $
VFR -4.4°C / °C 30º 9kt >10km - Clear 1033 - KILG 220251Z AUTO 03009KT 10SM CLR M04/M18 A3051 RMK AO2 SLP332 T10441178 58009 $
VFR -4.4°C / °C 40º 12kt >10km - Clear 1033 - KILG 220151Z AUTO 04012KT 10SM CLR M04/M18 A3052 RMK AO2 SLP337 T10441178 $
VFR -4.4°C / °C 30º 11kt >10km - Clear 1033 - KILG 220051Z 03011KT 10SM CLR M04/M16 A3053 RMK AO2 SLP338 T10441161 $
VFR -4.4°C / °C 10º 7kt >10km - Clear 1034 - KILG 212351Z 01007KT 10SM CLR M04/M15 A3054 RMK AO2 SLP341 T10441150 11028 21044 52010 $
VFR -4.4°C / °C 20º 8kt >10km - Clear 1033 - KILG 212251Z 02008KT 10SM CLR M04/M16 A3052 RMK AO2 SLP337 T10441156 $
VFR -3.9°C / °C 20º 8kt >10km - Clear 1033 - KILG 212151Z 02008KT 10SM CLR M04/M16 A3052 RMK AO2 SLP335 T10391156 $
VFR -3.9°C / °C 20º 10kt >10km - Clear 1033 - KILG 212051Z 02010KT 10SM CLR M04/M16 A3051 RMK AO2 SLP331 T10391156 55006
VFR -2.8°C / °C 10º 6kt >10km - Clear 1032 - KILG 211951Z 01006KT 10SM CLR M03/M16 A3050 RMK AO2 SLP328 T10281156 $
VFR -3.3°C / °C 50º 8kt >10km - Clear 1032 - KILG 211851Z 05008KT 10SM CLR M03/M16 A3050 RMK AO2 SLP329 T10331161 $
VFR -4.4°C / °C 40º 9kt >10km - Clear 1033 - KILG 211751Z 04009KT 10SM CLR M04/M16 A3052 RMK AO2 SLP337 T10441161 11039 21089 58014 $
VFR -5°C / °C 10º 10kt Gust 17kt >10km - Clear 1034 - KILG 211651Z 01010G17KT 10SM CLR M05/M16 A3054 RMK AO2 SLP344 T10501156 $
VFR -5.6°C / °C 20º 8kt >10km - Clear 1035 - KILG 211551Z 02008KT 10SM CLR M06/M16 A3057 RMK AO2 SLP352 T10561156 $

VFR

-6.1°C / °C

[Daha fazla]
Rüzgar 360º 9kt
Görünürlük >10km
Hava -
Bulutlar Clear
Basınç 1030
Değiştir -
Ham KILG 221451Z 36009KT 10SM CLR M06/M18 A3044 RMK AO2 SLP308 T10611178 56004 $

VFR

-7.8°C / °C

[Daha fazla]
Rüzgar 20º 8kt
Görünürlük >10km
Hava -
Bulutlar Clear
Basınç 1031
Değiştir -
Ham KILG 221351Z 02008KT 10SM CLR M08/M18 A3045 RMK AO2 SLP313 T10781183 $

VFR

-9.4°C / °C

[Daha fazla]
Rüzgar 20º 8kt
Görünürlük >10km
Hava -
Bulutlar Few Clouds 3800ft
Basınç 1030
Değiştir -
Ham KILG 221251Z 02008KT 10SM FEW038 M09/M18 A3044 RMK AO2 SLP307 T10941178 $

VFR

-8.9°C / °C

[Daha fazla]
Rüzgar 350º 9kt
Görünürlük >10km
Hava -
Bulutlar Overcast 3700ft
Basınç 1031
Değiştir -
Ham KILG 221151Z 35009KT 10SM OVC037 M09/M18 A3045 RMK AO2 SLP313 T10891183 11056 21094 53014 $

VFR

-9.4°C / °C

[Daha fazla]
Rüzgar 360º 7kt
Görünürlük >10km
Hava -
Bulutlar Clear
Basınç 1030
Değiştir -
Ham KILG 221051Z AUTO 36007KT 10SM CLR M09/M18 A3042 RMK AO2 SLP302 T10941178 $

VFR

-8.9°C / °C

[Daha fazla]
Rüzgar 350º 7kt
Görünürlük >10km
Hava -
Bulutlar Clear
Basınç 1030
Değiştir -
Ham KILG 220951Z AUTO 35007KT 10SM CLR M09/M18 A3041 RMK AO2 SLP300 T10891178 $

VFR

-8.3°C / °C

[Daha fazla]
Rüzgar 360º 8kt
Görünürlük >10km
Hava -
Bulutlar Clear
Basınç 1029
Değiştir -
Ham KILG 220851Z AUTO 36008KT 10SM CLR M08/M17 A3041 RMK AO2 SLP298 T10831172 58017 $

VFR

-7.2°C / °C

[Daha fazla]
Rüzgar 360º 7kt
Görünürlük >10km
Hava -
Bulutlar Few Clouds 3400ft
Basınç 1030
Değiştir -
Ham KILG 220751Z AUTO 36007KT 10SM FEW034 M07/M17 A3043 RMK AO2 SLP306 T10721172 $

VFR

-6.7°C / °C

[Daha fazla]
Rüzgar 20º 9kt
Görünürlük >10km
Hava -
Bulutlar Clear
Basınç 1031
Değiştir -
Ham KILG 220651Z AUTO 02009KT 10SM CLR M07/M17 A3044 RMK AO2 SLP310 T10671172 $

VFR

-5.6°C / °C

[Daha fazla]
Rüzgar 20º 11kt
Görünürlük >10km
Hava -
Bulutlar Clear
Basınç 1031
Değiştir -
Ham KILG 220551Z AUTO 02011KT 10SM CLR M06/M18 A3046 RMK AO2 SLP315 T10561183 11044 21056 58017 $

VFR

-5°C / °C

[Daha fazla]
Rüzgar 30º 12kt
Görünürlük >10km
Hava -
Bulutlar Clear
Basınç 1032
Değiştir -
Ham KILG 220451Z AUTO 03012KT 10SM CLR M05/M19 A3049 RMK AO2 SLP324 T10501194 410281089 $

VFR

-4.4°C / °C

[Daha fazla]
Rüzgar 40º 14kt
Görünürlük >10km
Hava -
Bulutlar Clear
Basınç 1033
Değiştir -
Ham KILG 220351Z AUTO 04014KT 10SM CLR M04/M20 A3051 RMK AO2 SLP332 T10441200 $

VFR

-4.4°C / °C

[Daha fazla]
Rüzgar 30º 9kt
Görünürlük >10km
Hava -
Bulutlar Clear
Basınç 1033
Değiştir -
Ham KILG 220251Z AUTO 03009KT 10SM CLR M04/M18 A3051 RMK AO2 SLP332 T10441178 58009 $

VFR

-4.4°C / °C

[Daha fazla]
Rüzgar 40º 12kt
Görünürlük >10km
Hava -
Bulutlar Clear
Basınç 1033
Değiştir -
Ham KILG 220151Z AUTO 04012KT 10SM CLR M04/M18 A3052 RMK AO2 SLP337 T10441178 $

VFR

-4.4°C / °C

[Daha fazla]
Rüzgar 30º 11kt
Görünürlük >10km
Hava -
Bulutlar Clear
Basınç 1033
Değiştir -
Ham KILG 220051Z 03011KT 10SM CLR M04/M16 A3053 RMK AO2 SLP338 T10441161 $

VFR

-4.4°C / °C

[Daha fazla]
Rüzgar 10º 7kt
Görünürlük >10km
Hava -
Bulutlar Clear
Basınç 1034
Değiştir -
Ham KILG 212351Z 01007KT 10SM CLR M04/M15 A3054 RMK AO2 SLP341 T10441150 11028 21044 52010 $

VFR

-4.4°C / °C

[Daha fazla]
Rüzgar 20º 8kt
Görünürlük >10km
Hava -
Bulutlar Clear
Basınç 1033
Değiştir -
Ham KILG 212251Z 02008KT 10SM CLR M04/M16 A3052 RMK AO2 SLP337 T10441156 $

VFR

-3.9°C / °C

[Daha fazla]
Rüzgar 20º 8kt
Görünürlük >10km
Hava -
Bulutlar Clear
Basınç 1033
Değiştir -
Ham KILG 212151Z 02008KT 10SM CLR M04/M16 A3052 RMK AO2 SLP335 T10391156 $

VFR

-3.9°C / °C

[Daha fazla]
Rüzgar 20º 10kt
Görünürlük >10km
Hava -
Bulutlar Clear
Basınç 1033
Değiştir -
Ham KILG 212051Z 02010KT 10SM CLR M04/M16 A3051 RMK AO2 SLP331 T10391156 55006

VFR

-2.8°C / °C

[Daha fazla]
Rüzgar 10º 6kt
Görünürlük >10km
Hava -
Bulutlar Clear
Basınç 1032
Değiştir -
Ham KILG 211951Z 01006KT 10SM CLR M03/M16 A3050 RMK AO2 SLP328 T10281156 $

VFR

-3.3°C / °C

[Daha fazla]
Rüzgar 50º 8kt
Görünürlük >10km
Hava -
Bulutlar Clear
Basınç 1032
Değiştir -
Ham KILG 211851Z 05008KT 10SM CLR M03/M16 A3050 RMK AO2 SLP329 T10331161 $

VFR

-4.4°C / °C

[Daha fazla]
Rüzgar 40º 9kt
Görünürlük >10km
Hava -
Bulutlar Clear
Basınç 1033
Değiştir -
Ham KILG 211751Z 04009KT 10SM CLR M04/M16 A3052 RMK AO2 SLP337 T10441161 11039 21089 58014 $

VFR

-5°C / °C

[Daha fazla]
Rüzgar 10º 10kt Gust 17kt
Görünürlük >10km
Hava -
Bulutlar Clear
Basınç 1034
Değiştir -
Ham KILG 211651Z 01010G17KT 10SM CLR M05/M16 A3054 RMK AO2 SLP344 T10501156 $

VFR

-5.6°C / °C

[Daha fazla]
Rüzgar 20º 8kt
Görünürlük >10km
Hava -
Bulutlar Clear
Basınç 1035
Değiştir -
Ham KILG 211551Z 02008KT 10SM CLR M06/M16 A3057 RMK AO2 SLP352 T10561156 $

Wilmington Manor (KILG) için TAF

From till


From till Wind 10º 7kt. Visibility 10km or more. Few Clouds 25000ft.
From till Wind variable 3kt. Visibility 10km or more. Few Clouds 20000ft.
From till Wind 240º 4kt. Visibility 10km or more. Scattered Clouds 20000ft.

Ham: KILG 221120Z 2212/2312 01007KT P6SM FEW250 FM221900 VRB03KT P6SM FEW200 FM230700 24004KT P6SM SCT200

Wilmington Manor için radar ve yağış nowcast

Çise
Hafif
Orta
Ağır
Çok ağır
Selamlamak

Konum işaretleyicisi Wilmington Manor üzerine yerleştirilir. Bu animasyon son saat içerisindeki yağış radarını ve 1h tahminini gösterir. Hafif yağmur veya kar yağışı radar için görünmez olabilir. Yağış şiddeti açık mavi ile koyu mor arasındaki renklerle kodlanmıştır.

Wilmington Manor için şu anki uydu görüntüleri, ABD

Konum işaretleyici Wilmington Manor üzerine yerleştirilir. [Daha fazla]

Gerçek zamanlı uydu görüntüsü gündüz süresince görülür ışığı gece süresince kızılötesi ışınım ile birleştirir. Gece kızılötesi ışınım sıcaklık farklarını algılayabildiğinden dolayı görüntü karanlık değildir. Ancak düşük bulutları ve sisi yer sıcaklığından ayırmak zordur ve bu nedenle gece boyunca neredeyse görünmez olabilirler. Avrupa için Meteosat uydu görüntüleri gerçek zamanlı olarak her 5 dakikada bir güncellenir. GOES-16/GOES-17 (Kuzey ve Güney Amerika) ve Himawari (Asya) görüntüleri her 10 dakikada bir güncellenir.